Showing default

HUBBLE 7, 64592

Orbit data source: Space-Track

HUBBLE 7, 64592 is an American payload satellite in SSO that was launched on Mon, 23 Jun 2025 UTC via an FALCON 9 launch vehicle from the Air Force Western Test Range (AFWTR). Payload-class satellites include a variety of spacecraft equipped with specific instruments for various scientific and technological missions. These include communications satellites like Starlink; space stations such as the ISS; scientific satellites like the Hubble; Earth observation satellites from companies like Planet Labs, Umbra, and HawkEye 360; GPS; miniature CubeSats for education and research; and military/defense satellites.

Loading next visibility...
Identifier
64592, 2025-135BS
Orbit
SSO
Country
Flag of USUS
Related business
Manufacturer
Endurosat
Mission
Operational Commercial Communications
Bus & Motor
CUBESAT 16U, Unknown motor
Mass
22 kg wet, 22 kg dry
Launch date (UTC)
2025-06-23 (11 months ago)
Launch vehicle
FALCON 9
Launch site
Air Force Western Test Range (AFWTR)
Object type
Payload
Rocket body
Debris
Shape & HBR
Box + 4 Pan, 1.0 m
Radar Cross Section
0.326 m², Medium (>0.1 m² and < 1m²)

Expand to show TLE details & history
Last TLE update: 8 hours ago

TLE from 8 hours ago
0 HUBBLE 7
1 64592U 25135BS  26132.04884500  .00001271  00000-0  12580-3 0  9995
2 64592  97.7711 247.1345 0004307 103.6326 256.5374 14.93610764 48512
Epoch: 2026-05-12T01:10Z
TLE epoch observation values (Epoch: 2026-05-12T01:10:20.207Z)
Latitude
0.00005°
Longitude
-0.27851°
Altitude
590.432 km
Speed
7.564 km/s
True Right ascension
16h 28m 32s
True Declination
0° 00' 00"
Sunlit
Object was in full shadow at epoch
Visualization orbit readout
Latitude
Unknown
Longitude
Unknown
Altitude
Unknown
Speed
Unknown
Apparent Right ascension
Unknown
Apparent Declination
Unknown
Sunlit
N/A
Visualization observer readout
Local Sidereal Time
17:46:45
Azimuth
Unknown
Elevation
Unknown
Doppler factor
Unknown
Orbital elements
Apogee altitude
586.704 km
Perigee altitude
580.707 km
Semi-major axis
6,961.842 km
Eccentricity
0.00043
Inclination
97.7711°
RAAN
247.1345°
Arg. of periapsis
103.6326°
True anomaly
256.48941°
Mean anomaly
256.5374°
Eccentric anomaly
256.5134°
Mean motion
3.73643 °/min
Orbital period
96.35 mins
BSTAR
0.0001258
Loading maneuver chart data...
Computing Atmospheric mass density...
Loading historical data...
Loading historical data...
Loading historical data...
Loading historical data...
Loading historical data...
Loading historical data...
Loading historical data...

Documentation

Showing up to 5 results
|